﻿測定場所 (Monitoring sites),日付 (Measurement date),時間 (Measurement time),線量率 最大値 (max) μGy/h,線量率 最小値 (min) μGy/h,線量率 平均値 (average) μGy/h,
新宿 (Shinjuku),2013-04-28,23:01～24:00,0.0494,0.0399,0.0447,
新宿 (Shinjuku),2013-04-28,22:01～23:00,0.0489,0.0414,0.0444,
新宿 (Shinjuku),2013-04-28,21:01～22:00,0.0477,0.0413,0.0447,
新宿 (Shinjuku),2013-04-28,20:01～21:00,0.0476,0.0417,0.0447,
新宿 (Shinjuku),2013-04-28,19:01～20:00,0.0481,0.0406,0.0447,
新宿 (Shinjuku),2013-04-28,18:01～19:00,0.0474,0.0406,0.0446,
新宿 (Shinjuku),2013-04-28,17:01～18:00,0.0468,0.0422,0.0446,
新宿 (Shinjuku),2013-04-28,16:01～17:00,0.0481,0.0402,0.0446,
新宿 (Shinjuku),2013-04-28,15:01～16:00,0.0472,0.0418,0.0446,
新宿 (Shinjuku),2013-04-28,14:01～15:00,0.0486,0.0405,0.0452,
新宿 (Shinjuku),2013-04-28,13:01～14:00,0.0489,0.0421,0.0452,
新宿 (Shinjuku),2013-04-28,12:01～13:00,0.0479,0.0419,0.0452,
新宿 (Shinjuku),2013-04-28,11:01～12:00,0.0490,0.0409,0.0450,
新宿 (Shinjuku),2013-04-28,10:01～11:00,0.0498,0.0411,0.0453,
新宿 (Shinjuku),2013-04-28,09:01～10:00,0.0488,0.0414,0.0454,
新宿 (Shinjuku),2013-04-28,08:01～09:00,0.0468,0.0408,0.0447,
新宿 (Shinjuku),2013-04-28,07:01～08:00,0.0486,0.0418,0.0451,
新宿 (Shinjuku),2013-04-28,06:01～07:00,0.0478,0.0415,0.0449,
新宿 (Shinjuku),2013-04-28,05:01～06:00,0.0477,0.0404,0.0447,
新宿 (Shinjuku),2013-04-28,04:01～05:00,0.0486,0.0418,0.0447,
新宿 (Shinjuku),2013-04-28,03:01～04:00,0.0494,0.0405,0.0445,
新宿 (Shinjuku),2013-04-28,02:01～03:00,0.0495,0.0414,0.0448,
新宿 (Shinjuku),2013-04-28,01:01～02:00,0.0473,0.0418,0.0446,
新宿 (Shinjuku),2013-04-28,00:01～01:00,0.0489,0.0417,0.0442,
新宿 (Shinjuku),2013-04-27,23:01～24:00,0.0475,0.0408,0.0446,
新宿 (Shinjuku),2013-04-27,22:01～23:00,0.0481,0.0418,0.0444,
新宿 (Shinjuku),2013-04-27,21:01～22:00,0.0472,0.0408,0.0443,
新宿 (Shinjuku),2013-04-27,20:01～21:00,0.0485,0.0416,0.0447,
新宿 (Shinjuku),2013-04-27,19:01～20:00,0.0476,0.0409,0.0443,
新宿 (Shinjuku),2013-04-27,18:01～19:00,0.0491,0.0413,0.0448,
新宿 (Shinjuku),2013-04-27,17:01～18:00,0.0480,0.0406,0.0448,
新宿 (Shinjuku),2013-04-27,16:01～17:00,0.0474,0.0418,0.0448,
新宿 (Shinjuku),2013-04-27,15:01～16:00,0.0487,0.0416,0.0452,
新宿 (Shinjuku),2013-04-27,14:01～15:00,0.0496,0.0414,0.0456,
新宿 (Shinjuku),2013-04-27,13:01～14:00,0.0493,0.0418,0.0454,
新宿 (Shinjuku),2013-04-27,12:01～13:00,0.0499,0.0426,0.0452,
新宿 (Shinjuku),2013-04-27,11:01～12:00,0.0478,0.0411,0.0451,
新宿 (Shinjuku),2013-04-27,10:01～11:00,0.0498,0.0425,0.0454,
新宿 (Shinjuku),2013-04-27,09:01～10:00,0.0493,0.0417,0.0457,
新宿 (Shinjuku),2013-04-27,08:01～09:00,0.0484,0.0421,0.0458,
新宿 (Shinjuku),2013-04-27,07:01～08:00,0.0491,0.0422,0.0456,
新宿 (Shinjuku),2013-04-27,06:01～07:00,0.0480,0.0423,0.0450,
新宿 (Shinjuku),2013-04-27,05:01～06:00,0.0484,0.0422,0.0452,
新宿 (Shinjuku),2013-04-27,04:01～05:00,0.0492,0.0416,0.0451,
新宿 (Shinjuku),2013-04-27,03:01～04:00,0.0483,0.0424,0.0447,
新宿 (Shinjuku),2013-04-27,02:01～03:00,0.0495,0.0420,0.0449,
新宿 (Shinjuku),2013-04-27,01:01～02:00,0.0481,0.0410,0.0446,
新宿 (Shinjuku),2013-04-27,00:01～01:00,0.0482,0.0413,0.0449,
新宿 (Shinjuku),2013-04-26,23:01～24:00,0.0485,0.0423,0.0448,
新宿 (Shinjuku),2013-04-26,22:01～23:00,0.0484,0.0423,0.0449,
新宿 (Shinjuku),2013-04-26,21:01～22:00,0.0483,0.0403,0.0452,
新宿 (Shinjuku),2013-04-26,20:01～21:00,0.0484,0.0415,0.0449,
新宿 (Shinjuku),2013-04-26,19:01～20:00,0.0509,0.0423,0.0454,
新宿 (Shinjuku),2013-04-26,18:01～19:00,0.0489,0.0411,0.0448,
新宿 (Shinjuku),2013-04-26,17:01～18:00,0.0484,0.0410,0.0447,
新宿 (Shinjuku),2013-04-26,16:01～17:00,0.0478,0.0421,0.0449,
新宿 (Shinjuku),2013-04-26,15:01～16:00,0.0489,0.0426,0.0452,
新宿 (Shinjuku),2013-04-26,14:01～15:00,0.0477,0.0413,0.0452,
新宿 (Shinjuku),2013-04-26,13:01～14:00,0.0489,0.0422,0.0456,
新宿 (Shinjuku),2013-04-26,12:01～13:00,0.0485,0.0425,0.0453,
新宿 (Shinjuku),2013-04-26,11:01～12:00,0.0476,0.0426,0.0452,
新宿 (Shinjuku),2013-04-26,10:01～11:00,0.0487,0.0404,0.0453,
新宿 (Shinjuku),2013-04-26,09:01～10:00,0.0489,0.0426,0.0454,
新宿 (Shinjuku),2013-04-26,08:01～09:00,0.0490,0.0420,0.0455,
新宿 (Shinjuku),2013-04-26,07:01～08:00,0.0482,0.0418,0.0454,
新宿 (Shinjuku),2013-04-26,06:01～07:00,0.0474,0.0421,0.0448,
新宿 (Shinjuku),2013-04-26,05:01～06:00,0.0491,0.0413,0.0448,
新宿 (Shinjuku),2013-04-26,04:01～05:00,0.0489,0.0417,0.0449,
新宿 (Shinjuku),2013-04-26,03:01～04:00,0.0493,0.0410,0.0451,
新宿 (Shinjuku),2013-04-26,02:01～03:00,0.0485,0.0425,0.0451,
新宿 (Shinjuku),2013-04-26,01:01～02:00,0.0486,0.0399,0.0448,
新宿 (Shinjuku),2013-04-26,00:01～01:00,0.0474,0.0416,0.0446,
新宿 (Shinjuku),2013-04-25,23:01～24:00,0.0473,0.0417,0.0447,
新宿 (Shinjuku),2013-04-25,22:01～23:00,0.0478,0.0422,0.0445,
新宿 (Shinjuku),2013-04-25,21:01～22:00,0.0490,0.0421,0.0450,
新宿 (Shinjuku),2013-04-25,20:01～21:00,0.0474,0.0420,0.0444,
新宿 (Shinjuku),2013-04-25,19:01～20:00,0.0483,0.0419,0.0449,
新宿 (Shinjuku),2013-04-25,18:01～19:00,0.0490,0.0400,0.0446,
新宿 (Shinjuku),2013-04-25,17:01～18:00,0.0485,0.0395,0.0450,
新宿 (Shinjuku),2013-04-25,16:01～17:00,0.0482,0.0418,0.0448,
新宿 (Shinjuku),2013-04-25,15:01～16:00,0.0478,0.0428,0.0449,
新宿 (Shinjuku),2013-04-25,14:01～15:00,0.0480,0.0402,0.0451,
新宿 (Shinjuku),2013-04-25,13:01～14:00,0.0478,0.0406,0.0446,
新宿 (Shinjuku),2013-04-25,12:01～13:00,0.0492,0.0414,0.0450,
新宿 (Shinjuku),2013-04-25,11:01～12:00,0.0482,0.0411,0.0451,
新宿 (Shinjuku),2013-04-25,10:01～11:00,0.0474,0.0416,0.0449,
新宿 (Shinjuku),2013-04-25,09:01～10:00,0.0481,0.0409,0.0452,
新宿 (Shinjuku),2013-04-25,08:01～09:00,0.0484,0.0418,0.0453,
新宿 (Shinjuku),2013-04-25,07:01～08:00,0.0498,0.0424,0.0452,
新宿 (Shinjuku),2013-04-25,06:01～07:00,0.0483,0.0414,0.0447,
新宿 (Shinjuku),2013-04-25,05:01～06:00,0.0483,0.0410,0.0448,
新宿 (Shinjuku),2013-04-25,04:01～05:00,0.0475,0.0421,0.0447,
新宿 (Shinjuku),2013-04-25,03:01～04:00,0.0486,0.0419,0.0446,
新宿 (Shinjuku),2013-04-25,02:01～03:00,0.0502,0.0413,0.0453,
新宿 (Shinjuku),2013-04-25,01:01～02:00,0.0514,0.0423,0.0464,
新宿 (Shinjuku),2013-04-25,00:01～01:00,0.0541,0.0450,0.0491,
新宿 (Shinjuku),2013-04-24,23:01～24:00,0.0524,0.0441,0.0487,
新宿 (Shinjuku),2013-04-24,22:01～23:00,0.0506,0.0433,0.0468,
新宿 (Shinjuku),2013-04-24,21:01～22:00,0.0493,0.0420,0.0463,
新宿 (Shinjuku),2013-04-24,20:01～21:00,0.0485,0.0422,0.0456,
新宿 (Shinjuku),2013-04-24,19:01～20:00,0.0489,0.0415,0.0448,
新宿 (Shinjuku),2013-04-24,18:01～19:00,0.0477,0.0415,0.0449,
新宿 (Shinjuku),2013-04-24,17:01～18:00,0.0492,0.0426,0.0447,
新宿 (Shinjuku),2013-04-24,16:01～17:00,0.0493,0.0428,0.0454,
新宿 (Shinjuku),2013-04-24,15:01～16:00,0.0488,0.0424,0.0458,
新宿 (Shinjuku),2013-04-24,14:01～15:00,0.0484,0.0420,0.0454,
新宿 (Shinjuku),2013-04-24,13:01～14:00,0.0494,0.0419,0.0448,
新宿 (Shinjuku),2013-04-24,12:01～13:00,0.0525,0.0441,0.0475,
新宿 (Shinjuku),2013-04-24,11:01～12:00,0.0510,0.0433,0.0479,
新宿 (Shinjuku),2013-04-24,10:01～11:00,0.0488,0.0433,0.0460,
新宿 (Shinjuku),2013-04-24,09:01～10:00,0.0494,0.0423,0.0453,
新宿 (Shinjuku),2013-04-24,08:01～09:00,0.0474,0.0410,0.0445,
新宿 (Shinjuku),2013-04-24,07:01～08:00,0.0489,0.0410,0.0446,
新宿 (Shinjuku),2013-04-24,06:01～07:00,0.0476,0.0404,0.0445,
新宿 (Shinjuku),2013-04-24,05:01～06:00,0.0477,0.0400,0.0444,
新宿 (Shinjuku),2013-04-24,04:01～05:00,0.0477,0.0413,0.0449,
新宿 (Shinjuku),2013-04-24,03:01～04:00,0.0489,0.0406,0.0447,
新宿 (Shinjuku),2013-04-24,02:01～03:00,0.0479,0.0403,0.0442,
新宿 (Shinjuku),2013-04-24,01:01～02:00,0.0477,0.0412,0.0442,
新宿 (Shinjuku),2013-04-24,00:01～01:00,0.0472,0.0418,0.0445,
新宿 (Shinjuku),2013-04-23,23:01～24:00,0.0474,0.0423,0.0448,
新宿 (Shinjuku),2013-04-23,22:01～23:00,0.0485,0.0416,0.0448,
新宿 (Shinjuku),2013-04-23,21:01～22:00,0.0479,0.0423,0.0446,
新宿 (Shinjuku),2013-04-23,20:01～21:00,0.0476,0.0417,0.0445,
新宿 (Shinjuku),2013-04-23,19:01～20:00,0.0483,0.0406,0.0445,
新宿 (Shinjuku),2013-04-23,18:01～19:00,0.0468,0.0412,0.0441,
新宿 (Shinjuku),2013-04-23,17:01～18:00,0.0476,0.0412,0.0443,
新宿 (Shinjuku),2013-04-23,16:01～17:00,0.0484,0.0415,0.0445,
新宿 (Shinjuku),2013-04-23,15:01～16:00,0.0486,0.0405,0.0446,
新宿 (Shinjuku),2013-04-23,14:01～15:00,0.0480,0.0416,0.0447,
新宿 (Shinjuku),2013-04-23,13:01～14:00,0.0473,0.0410,0.0446,
新宿 (Shinjuku),2013-04-23,12:01～13:00,0.0482,0.0418,0.0447,
新宿 (Shinjuku),2013-04-23,11:01～12:00,0.0496,0.0408,0.0451,
新宿 (Shinjuku),2013-04-23,10:01～11:00,0.0476,0.0409,0.0447,
新宿 (Shinjuku),2013-04-23,09:01～10:00,0.0481,0.0419,0.0451,
新宿 (Shinjuku),2013-04-23,08:01～09:00,0.0488,0.0425,0.0456,
新宿 (Shinjuku),2013-04-23,07:01～08:00,0.0482,0.0415,0.0451,
新宿 (Shinjuku),2013-04-23,06:01～07:00,0.0483,0.0413,0.0449,
新宿 (Shinjuku),2013-04-23,05:01～06:00,0.0485,0.0416,0.0445,
新宿 (Shinjuku),2013-04-23,04:01～05:00,0.0479,0.0409,0.0443,
新宿 (Shinjuku),2013-04-23,03:01～04:00,0.0473,0.0406,0.0443,
新宿 (Shinjuku),2013-04-23,02:01～03:00,0.0475,0.0406,0.0444,
新宿 (Shinjuku),2013-04-23,01:01～02:00,0.0465,0.0403,0.0439,
新宿 (Shinjuku),2013-04-23,00:01～01:00,0.0483,0.0404,0.0441,
新宿 (Shinjuku),2013-04-22,23:01～24:00,0.0471,0.0417,0.0444,
新宿 (Shinjuku),2013-04-22,22:01～23:00,0.0476,0.0404,0.0442,
新宿 (Shinjuku),2013-04-22,21:01～22:00,0.0475,0.0418,0.0446,
新宿 (Shinjuku),2013-04-22,20:01～21:00,0.0467,0.0407,0.0440,
新宿 (Shinjuku),2013-04-22,19:01～20:00,0.0476,0.0391,0.0444,
新宿 (Shinjuku),2013-04-22,18:01～19:00,0.0478,0.0410,0.0441,
新宿 (Shinjuku),2013-04-22,17:01～18:00,0.0474,0.0419,0.0442,
新宿 (Shinjuku),2013-04-22,16:01～17:00,0.0479,0.0407,0.0443,
新宿 (Shinjuku),2013-04-22,15:01～16:00,0.0483,0.0414,0.0446,
新宿 (Shinjuku),2013-04-22,14:01～15:00,0.0483,0.0421,0.0452,
新宿 (Shinjuku),2013-04-22,13:01～14:00,0.0481,0.0414,0.0447,
新宿 (Shinjuku),2013-04-22,12:01～13:00,0.0487,0.0417,0.0446,
新宿 (Shinjuku),2013-04-22,11:01～12:00,0.0469,0.0399,0.0442,
新宿 (Shinjuku),2013-04-22,10:01～11:00,0.0472,0.0410,0.0444,
新宿 (Shinjuku),2013-04-22,09:01～10:00,0.0485,0.0413,0.0447,
新宿 (Shinjuku),2013-04-22,08:01～09:00,0.0471,0.0408,0.0443,
新宿 (Shinjuku),2013-04-22,07:01～08:00,0.0480,0.0396,0.0441,
新宿 (Shinjuku),2013-04-22,06:01～07:00,0.0470,0.0412,0.0440,
新宿 (Shinjuku),2013-04-22,05:01～06:00,0.0476,0.0410,0.0441,
新宿 (Shinjuku),2013-04-22,04:01～05:00,0.0477,0.0408,0.0442,
新宿 (Shinjuku),2013-04-22,03:01～04:00,0.0473,0.0417,0.0444,
新宿 (Shinjuku),2013-04-22,02:01～03:00,0.0471,0.0411,0.0440,
新宿 (Shinjuku),2013-04-22,01:01～02:00,0.0479,0.0402,0.0441,
新宿 (Shinjuku),2013-04-22,00:01～01:00,0.0474,0.0410,0.0443,
